Total_Precipitation_Accumulation
0.01 0.02 0.02 0.01 0.02 0.04 0.06 0.13 0.24 0.23 0.22 0.32 0.41 0.61 0.80 0.90 1.14 1.47 1.66 1.64 1.62 1.94 2.40 2.77 3.07 3.18 3.50 3.71 3.88 3.90 4.16 4.60 4.96 4.81 4.50 4.34 4.12 3.88 3.63 3.35 3.27 3.33 3.33 3.49
0.01 0.02 0.01 0.02 0.02 0.03 0.04 0.10 0.21 0.24 0.23 0.37 0.52 0.74 0.90 1.10 1.38 1.51 1.42 1.40 1.55 1.94 2.45 2.83 3.08 3.21 3.47 3.74 4.17 4.31 4.52 4.92 5.08 4.93 4.81 4.67 4.56 4.15 4.03 3.87 3.71 3.34 3.15 3.27
0.01 0.02 0.01 0.02 0.02 0.03 0.06 0.12 0.19 0.23 0.30 0.45 0.60 1.05 1.20 1.34 1.51 1.52 1.44 1.62 1.63 1.71 2.14 2.43 2.53 2.70 2.88 3.03 3.28 3.58 4.10 4.64 4.86 4.92 4.82 4.79 4.82 4.38 4.13 3.98 3.82 3.44 3.16 3.06
0.01 0.02 0.01 0.02 0.03 0.03 0.08 0.10 0.11 0.16 0.28 0.57 0.68 1.34 1.51 1.69 1.85 1.71 1.61 1.54 1.53 1.77 2.08 2.09 1.90 2.05 2.31 2.31 2.62 3.04 3.53 3.90 4.15 4.24 4.25 4.31 4.29 4.21 4.12 3.96 3.61 3.38 3.15 3.03
0.02 0.02 0.03 0.05 0.03 0.03 0.07 0.10 0.13 0.18 0.31 0.56 0.61 1.01 1.55 1.91 2.10 1.73 1.61 1.45 1.52 1.74 1.77 1.72 1.73 1.84 1.99 2.15 2.46 2.78 3.12 3.43 3.61 3.70 3.80 3.92 3.82 3.85 3.74 3.57 3.39 3.19 3.03 2.89
0.03 0.04 0.04 0.04 0.04 0.06 0.07 0.13 0.22 0.30 0.51 0.92 0.79 0.91 1.46 1.82 1.67 1.47 1.40 1.19 1.31 1.49 1.57 1.61 1.69 1.81 1.93 2.23 2.59 2.88 3.12 3.36 3.43 3.22 3.12 3.18 3.24 3.30 3.25 3.11 2.94 2.74 2.70 2.62
0.13 0.11 0.08 0.07 0.08 0.10 0.11 0.24 0.72 1.15 1.47 1.37 0.85 0.96 1.55 1.44 1.13 1.06 1.14 1.12 1.12 1.15 1.29 1.38 1.57 1.77 1.94 2.06 2.16 2.60 3.03 3.21 3.12 2.86 2.68 2.63 2.78 2.89 2.83 2.72 2.64 2.55 2.44 2.40
0.28 0.27 0.15 0.11 0.14 0.15 0.16 0.27 0.78 1.10 1.20 1.17 0.96 1.35 1.85 1.43 0.99 0.84 0.95 0.95 0.85 0.79 0.76 0.84 1.02 1.14 1.28 1.33 1.35 1.53 1.81 2.07 2.15 2.04 2.07 2.14 2.19 2.26 2.27 2.48 2.32 2.32 2.25 2.16
0.17 0.17 0.13 0.14 0.19 0.20 0.26 0.31 0.33 0.57 0.79 1.19 1.21 1.43 1.55 1.26 0.97 0.93 1.01 0.92 0.75 0.71 0.66 0.73 0.84 0.90 0.98 1.00 1.05 1.20 1.44 1.69 1.74 1.74 1.80 1.85 1.87 1.93 1.97 2.03 1.98 1.95 2.02 1.99
0.11 0.12 0.13 0.13 0.17 0.21 0.22 0.30 0.46 0.74 1.00 1.16 1.27 1.66 1.84 1.64 1.33 1.14 1.09 0.97 0.76 0.64 0.63 0.70 0.81 0.85 0.94 1.04 1.20 1.33 1.44 1.55 1.55 1.54 1.56 1.51 1.62 1.65 1.71 1.70 1.64 1.67 1.76 1.79
0.09 0.10 0.15 0.21 0.24 0.25 0.26 0.34 0.50 0.69 0.75 0.98 1.40 1.57 1.34 1.28 1.25 1.30 1.25 1.04 0.82 0.65 0.60 0.67 0.79 0.84 0.89 1.02 1.16 1.31 1.41 1.52 1.49 1.44 1.50 1.56 1.59 1.64 1.61 1.58 1.50 1.58 1.67 1.73
0.10 0.12 0.18 0.27 0.24 0.18 0.25 0.35 0.51 0.78 0.82 0.85 1.04 1.24 0.87 0.87 0.97 1.06 1.06 0.85 0.67 0.62 0.62 0.68 0.80 0.85 0.98 1.05 1.12 1.16 1.27 1.41 1.41 1.42 1.55 1.75 1.74 1.74 1.70 1.56 1.50 1.56 1.59 1.64
0.16 0.16 0.30 0.58 0.54 0.29 0.28 0.28 0.38 0.53 0.66 0.75 1.00 1.20 0.82 0.86 0.98 0.96 0.94 0.83 0.75 0.72 0.72 0.78 0.84 0.82 0.94 1.05 1.10 1.12 1.21 1.34 1.51 1.54 1.59 1.75 1.78 1.72 1.61 1.54 1.51 1.53 1.53 1.56
0.14 0.16 0.27 0.66 0.70 0.46 0.34 0.30 0.33 0.46 0.60 0.59 0.62 0.87 0.87 0.86 0.99 0.99 0.98 0.95 0.93 0.82 0.82 0.93 1.01 0.93 0.93 0.97 1.01 1.05 1.17 1.32 1.36 1.36 1.42 1.51 1.46 1.46 1.47 1.49 1.48 1.46 1.51 1.54
0.14 0.18 0.19 0.29 0.41 0.44 0.40 0.33 0.30 0.33 0.36 0.50 0.58 0.78 0.97 0.98 1.02 0.92 0.86 0.87 0.89 0.84 0.80 0.87 0.82 0.77 0.77 0.80 0.84 0.91 0.94 1.06 1.22 1.31 1.37 1.45 1.48 1.47 1.47 1.42 1.36 1.43 1.50 1.47
0.21 0.26 0.25 0.32 0.41 0.45 0.43 0.38 0.32 0.30 0.29 0.36 0.49 0.70 0.77 0.85 0.90 0.93 0.88 0.89 0.84 0.77 0.78 0.72 0.60 0.56 0.61 0.69 0.74 0.82 0.85 0.93 1.06 1.10 1.20 1.43 1.55 1.56 1.51 1.40 1.40 1.46 1.52 1.59
0.33 0.38 0.36 0.40 0.49 0.62 0.63 0.40 0.36 0.37 0.34 0.46 0.73 0.85 0.85 0.99 0.99 0.91 0.85 0.82 0.74 0.69 0.68 0.63 0.54 0.54 0.61 0.69 0.76 0.82 0.89 0.93 1.02 1.09 1.19 1.27 1.39 1.46 1.37 1.29 1.34 1.38 1.46 1.59
0.39 0.56 0.57 0.54 0.72 0.92 0.74 0.43 0.37 0.42 0.41 0.43 0.58 0.69 0.77 1.00 1.03 0.83 0.71 0.70 0.68 0.65 0.62 0.61 0.61 0.63 0.76 0.77 0.84 0.98 1.11 1.11 1.12 1.24 1.33 1.32 1.40 1.51 1.51 1.46 1.47 1.57 1.63 1.66
0.34 0.54 0.62 0.68 0.85 0.87 0.74 0.59 0.52 0.58 0.66 0.50 0.55 0.61 0.68 0.72 0.82 0.90 0.70 0.71 0.72 0.63 0.64 0.65 0.68 0.76 0.90 0.91 0.94 1.12 1.20 1.26 1.30 1.34 1.44 1.49 1.54 1.64 1.69 1.68 1.75 1.84 1.90 1.79
0.43 0.56 0.72 0.71 0.90 1.05 0.87 0.69 0.61 0.71 1.17 0.78 0.60 0.55 0.64 0.70 1.05 1.13 0.84 0.73 0.72 0.71 0.76 0.82 0.82 0.90 0.99 1.07 1.24 1.37 1.40 1.50 1.58 1.55 1.57 1.65 1.78 1.86 1.92 2.10 2.33 2.40 2.40 2.26
0.87 0.90 0.90 0.88 0.96 0.97 0.83 0.68 0.69 1.20 1.46 0.92 0.73 0.62 0.67 0.76 0.91 0.97 0.82 0.75 0.77 0.84 0.96 1.09 1.21 1.26 1.29 1.23 1.35 1.54 1.71 1.79 1.80 1.94 1.99 2.01 2.11 2.23 2.31 2.54 2.70 2.74 2.71 2.79
1.15 1.17 1.13 1.15 1.34 1.36 0.97 0.94 1.16 1.38 1.20 1.01 0.95 0.88 0.76 0.75 0.79 0.90 0.92 0.89 0.87 0.90 1.07 1.19 1.31 1.39 1.43 1.53 1.63 1.70 1.77 1.87 1.99 2.04 2.13 2.23 2.40 2.34 2.42 2.71 2.77 2.88 3.02 3.02
1.16 1.21 1.25 1.33 1.44 1.30 1.14 1.27 1.33 1.22 1.27 1.20 1.05 1.04 0.93 0.87 0.83 0.82 0.86 0.90 0.95 0.95 1.01 1.18 1.24 1.33 1.47 1.59 1.71 1.91 2.00 2.02 2.09 2.18 2.26 2.44 2.63 2.76 2.85 3.04 3.14 3.10 3.07 3.03
1.31 1.14 1.32 1.51 1.59 1.47 1.51 1.48 1.40 1.36 1.34 1.21 1.04 1.08 1.06 0.96 0.87 0.86 0.93 0.96 0.94 0.94 0.98 1.09 1.17 1.31 1.44 1.56 1.76 1.99 2.05 2.01 2.14 2.30 2.36 2.50 2.65 2.76 2.85 3.04 3.11 3.10 3.03 3.01
1.54 1.46 1.71 1.94 1.94 1.94 1.95 1.77 1.53 1.38 1.25 1.17 1.11 1.13 1.10 1.06 1.01 0.95 0.99 1.07 0.98 0.90 0.97 1.09 1.13 1.23 1.36 1.39 1.59 1.83 2.01 2.12 2.31 2.45 2.55 2.67 2.81 2.94 3.04 2.94 3.00 3.08 3.06 2.97
1.65 1.79 2.01 2.21 2.02 2.00 2.07 1.82 1.52 1.47 1.49 1.42 1.41 1.39 1.32 1.24 1.21 1.10 1.02 1.03 0.99 0.96 1.02 1.17 1.22 1.25 1.32 1.37 1.53 1.70 1.94 2.16 2.48 2.57 2.63 2.68 2.75 2.90 2.91 2.90 2.84 2.81 2.69 2.66